Погода в Новороманове

Россия / Кемеровская область (Кузбасс)     55°39′45″N   85°20′27″E
темп.,
°C
ветер,
м/с
пор.,
м/с
влажн.,
%
обл.,
%
осадки,
мм/ч
давл.,
гПа
погр.,
м
12 мая, ср
ср1201:00+10ссв41160100 0.0 1017222
04:00+8ссв357377 0.0 101680
07:00+9с25705 0.0 1017131
10:00+16ссв354411 0.0 1016591
13:00+20св333094 0.0 10152713
16:00+20ссв333118 0.0 10142112
19:00+19ссв343787 0.0 10141241
22:00+14ююз355594 0.3 1015107
13 мая, чт
чт1301:00+13в114950 0.3 101411
04:00+10юв226110 0.0 101410
07:00+12ю11615 0.0 101463
10:00+16зюз234421 0.0 1013667
13:00+19зюз343589 0.0 10122507
16:00+20з343187 0.0 10112587
19:00+14ссз586397 0.5 1013655
22:00+11с378198 0.4 1014242
14 мая, пт
пт1401:00+10ссз378198 0.4 1014426
04:00+10сз497621 0.0 1014467
07:00+7сз5107428 0.0 1016413
10:00+10ссз7969100 0.0 10171219
13:00+12ссз89373 0.1 10181699
16:00+13ссз7930100 0.0 10191995
19:00+12сз583299 0.0 10201823
22:00+9зсз233863 0.0 102251
15 мая, сб
сб1501:00+7зюз224595 0.0 102227
04:00+9зюз4943100 0.0 1021296
07:00+9юз4106093 0.1 1021334
10:00+13зюз8144987 0.0 1019732
13:00+19зюз8124394 0.1 10171383
16:00+23з81041100 0.1 10152148
19:00+14зюз71189100 3.0 1017344
22:00+15юз51384100 1.5 1015245
16 мая, вс
вс1601:00+13ююз4119095 2.5 1014249
04:00+11зюз239331 0.0 101445
07:00+13ююз398932 0.0 1013260
10:00+18зюз5866100 0.0 1013681
13:00+23юз684720 0.0 10111469
16:00+18ссз3576100 3.5 1009196
19:00+23юз4850100 4.2 1006435
22:00+14з2587100 12.4 1008174